AirNav   Air Wisconsin pilot careers
 
 420 users online  

CA84 Torrey Pines Gliderport
San Diego, California, USA

GOING TO SAN DIEGO?


FAA INFORMATION EFFECTIVE 08 NOVEMBER 2018

Location

FAA Identifier: CA84
Lat/Long: 32-53-23.0000N / 117-14-49.0000W
32-53.383333N / 117-14.816667W
32.8897222 / -117.2469444
(estimated)
Elevation: 372 ft. / 113 m (estimated)
Variation: 13E (1985)
From city: 11 miles NW of SAN DIEGO, CA
Time zone: UTC -8 (UTC -7 during Daylight Saving Time)
Zip code: 92037

Gliderport Operations

Gliderport use: Private use. Permission required prior to landing
Activation date: 11/1961
Control tower: no
ARTCC: LOS ANGELES CENTER
FSS: SAN DIEGO FLIGHT SERVICE STATION
Attendance: UNATNDD
Wind indicator: no
Segmented circle: no

Gliderport Communications

WX ASOS at MYF (7 nm SE): 126.9 (858-576-4337)
WX ASOS at SAN (10 nm S): PHONE 619-296-8934
WX AWOS-3P at SEE (14 nm E): 125.45 (619-449-1228)
WX ASOS at CRQ (14 nm N): PHONE 760-930-0864
WX ASOS at RNM (19 nm NE): 132.025 (760-789-0736)

Nearby radio navigation aids

VOR radial/distance  VOR name  Freq  Var
MZBr335/6.5MISSION BAY VORTAC117.8015E
PGYr307/21.5POGGI VORTAC109.8014E
OCNr143/22.7OCEANSIDE VORTAC115.3015E
TIJr311/25.7TIJUANA VOR/DME116.5014E
JLIr231/36.5JULIAN VORTAC114.0015E

Gliderport Services

Airframe service: NONE
Powerplant service: NONE

Runway Information

Runway 9/27

Dimensions: 1500 x 30 ft. / 457 x 9 m
Surface: asphalt
RUNWAY 9  RUNWAY 27
Traffic pattern: leftleft
Obstructions: nonetrees, 100 ft. from runway

Gliderport Ownership and Management from official FAA records

Ownership: Publicly-owned
Owner: CITY OF SAN DIEGO
Manager: JIM FROST
4740 HARBINSON AVE
LA MESA, CA 91941
Phone 619-461-9614
WORK PHONE 619-535-9505 EXT 1585

Additional Remarks

GLIDER PORT IS LEASED FM CITY TO THE ASSOCD GLIDER CLUB OF SOUTHERN CALIF FOR STUDENT TRAINING & RIDGE SOARING.
ALL ACFT ARE TRAILERED GLIDERS.
ROLLING RWY .6 PERCENT GRADIENT.
EXTENSIVE HANG GLIDER OPERATIONS ON WEEKENDS AND WEEKDAYS.

Instrument Procedures

There are no published instrument procedures at CA84.

Some nearby airports with instrument procedures:

KNKX - Miramar MCAS (Joe Foss Field) Airport (5 nm E)
KMYF - Montgomery-Gibbs Executive Airport (7 nm SE)
KSAN - San Diego International Airport (10 nm S)
KNZY - North Island Naval Air Station (Halsey Field) (12 nm S)
KSEE - Gillespie Field Airport (14 nm E)
KCRQ - Mc Clellan-Palomar Airport (14 nm N)
KRNM - Ramona Airport (19 nm NE)
 
Loc | Ops | Rwys | IFR | FBO | Links
Com | Nav | Svcs | Stats | Notes


 
Area around CA84 (Torrey Pines Gliderport)
 
Road maps at: MapQuest Bing Google
 
Aerial photo
WARNING: Photo may not be current or correct
Aerial photo of CA84 (Torrey Pines Gliderport)
Photo by Doug Fronius
Photo taken 13-Mar-2004
from a 1942 Schweizer TG-2 sailplane.

Do you have a better or more recent aerial photo of Torrey Pines Gliderport that you would like to share? If so, please send us your photo.

 
Sectional chart

 
Airport distance calculator
Flying to Torrey Pines Gliderport? Find the distance to fly.

From to CA84

Sunrise and sunset
Times for 14-Nov-2018
 Local
(UTC-8)
 Zulu
(UTC)
Morning civil twilight05:5313:53
Sunrise06:2014:20
Sunset16:4700:47
Evening civil twilight17:1401:14

Current date and time
Zulu (UTC)  15-Nov-2018 07:21:58
Local (UTC-8)  14-Nov-2018 23:21:58
 
METAR
KNKX 
6nm E 
150655Z 00000KT 10SM CLR 16/M12 A3013 RMK AO2 SLP195 T01561122
KMYF 
7nm SE 
150653Z AUTO 04004KT 10SM CLR 17/M13 A3013 RMK AO2 SLP200 T01671128
KSAN 
10nm S 
150651Z 00000KT 10SM FEW250 18/M11 A3014 RMK AO2 SLP205 T01781106
KNZY 
11nm S 
150652Z 30003KT 10SM CLR 16/M02 A3012 RMK AO2 SLP198 T01561022
KCRQ 
15nm N 
150653Z AUTO 09004KT 10SM CLR 15/M10 A3013 RMK AO2 SLP199 T01501100
KSEE 
15nm E 
150655Z AUTO 00000KT 10SM CLR 11/M08 A3013 RMK AO2
KRNM 
19nm NE 
150653Z AUTO 13003KT 10SM CLR 09/M13 A3015 RMK AO2 SLP202 T00941128
TAF
KNKX 
6nm E 
1503/1603 08010KT 9999 SKC QNH3005INS TEMPO 1516/1520 VRB05KT BECMG 1520/1522 28007KT 9999 SCT200 QNH2999INS T11/1513Z T28/1521Z
KSAN 
10nm S 
150520Z 1506/1612 VRB03KT P6SM FEW250 FM152100 29008KT P6SM FEW250 FM160100 VRB04KT P6SM SCT250
KNZY 
11nm S 
1423/1523 31011KT 9999 FEW200 WSCONDS 530009 530903 QNH3006INS FM150300 VRB06KT 9999 SKC 500000 QNH3003INS FM151800 30011KT 9999 FEW250 520009 520906 QNH3000INS T12/1521Z T24/1512Z FS30022
KCRQ 
15nm N 
150520Z 1506/1606 VRB03KT P6SM FEW250 FM152100 26008KT P6SM FEW250 FM160100 VRB04KT P6SM SCT250
NOTAMs
Click for the latest NOTAMs
NOTAMs are issued by the DoD/FAA and will open in a separate window not controlled by AirNav.

 

 
 

Would you like to see your business listed on this page?

 If your business provides an interesting product or service to pilots, flight crews, aircraft, or users of the Torrey Pines Gliderport, you should consider listing it here.  To start the listing process, click on the button below
 
Add a business
 

Other Pages about Torrey Pines Gliderport

www.agcsc.org/torrey_pines_info.html
 
Update a link
 
Copyright © AirNav, LLC. All rights reserved. Privacy Policy  Contact